TimeMDT,TemperatureF,Dew PointF,Humidity,Sea Level PressureIn,VisibilityMPH,Wind Direction,Wind SpeedMPH,Gust SpeedMPH,PrecipitationIn,Events,Conditions,WindDirDegrees,DateUTC
12:53 AM,23.0,16.0,74,30.46,10.0,ENE,4.6,-,N/A,,Clear,60,2013-04-22 06:53:00
1:53 AM,21.9,16.0,78,30.47,10.0,NE,5.8,-,N/A,,Clear,40,2013-04-22 07:53:00
2:53 AM,21.0,16.0,81,30.47,10.0,Calm,Calm,-,N/A,,Clear,0,2013-04-22 08:53:00
3:53 AM,19.0,15.1,85,30.49,10.0,Calm,Calm,-,N/A,,Clear,0,2013-04-22 09:53:00
4:53 AM,15.1,12.0,88,30.51,10.0,Calm,Calm,-,N/A,,Clear,0,2013-04-22 10:53:00
5:53 AM,14.0,10.9,88,30.53,10.0,West,3.5,-,N/A,,Clear,260,2013-04-22 11:53:00
6:53 AM,16.0,12.0,84,30.54,10.0,SW,4.6,-,N/A,,Clear,230,2013-04-22 12:53:00
7:53 AM,21.0,17.1,85,30.56,10.0,WSW,4.6,-,N/A,,Clear,240,2013-04-22 13:53:00
8:53 AM,26.1,19.9,78,30.56,10.0,West,5.8,-,N/A,,Clear,260,2013-04-22 14:53:00
9:53 AM,30.0,19.0,64,30.55,10.0,WSW,6.9,-,N/A,,Clear,240,2013-04-22 15:53:00
10:53 AM,33.1,15.1,48,30.55,10.0,WNW,5.8,-,N/A,,Overcast,300,2013-04-22 16:53:00
11:53 AM,35.1,14.0,42,30.54,10.0,Variable,3.5,-,N/A,,Mostly Cloudy,0,2013-04-22 17:53:00
12:53 PM,36.0,12.0,37,30.53,10.0,West,3.5,-,N/A,,Overcast,260,2013-04-22 18:53:00
1:53 PM,39.0,12.9,34,30.51,10.0,SSW,5.8,-,N/A,,Overcast,210,2013-04-22 19:53:00
2:53 PM,39.9,12.9,33,30.49,10.0,WNW,6.9,17.3,N/A,,Overcast,290,2013-04-22 20:53:00
3:53 PM,42.1,12.0,29,30.46,10.0,West,13.8,20.7,N/A,,Overcast,260,2013-04-22 21:53:00
4:53 PM,42.1,12.9,31,30.45,10.0,West,11.5,17.3,N/A,,Mostly Cloudy,260,2013-04-22 22:53:00
5:53 PM,42.1,14.0,32,30.44,10.0,WSW,15.0,-,N/A,,Mostly Cloudy,240,2013-04-22 23:53:00
6:53 PM,41.0,15.1,35,30.42,10.0,SW,13.8,20.7,N/A,,Partly Cloudy,220,2013-04-23 00:53:00
7:53 PM,37.0,16.0,42,30.42,10.0,SW,15.0,-,N/A,,Clear,220,2013-04-23 01:53:00
8:53 PM,33.1,18.0,54,30.41,10.0,SSW,13.8,-,N/A,,Clear,210,2013-04-23 02:53:00
9:53 PM,30.9,18.0,59,30.41,10.0,SSW,15.0,-,N/A,,Clear,210,2013-04-23 03:53:00
10:53 PM,30.9,17.1,57,30.39,10.0,SSW,17.3,-,N/A,,Clear,210,2013-04-23 04:53:00
11:53 PM,28.9,16.0,58,30.37,10.0,SW,12.7,-,N/A,,Clear,220,2013-04-23 05:53:00